,,PA_Meas_PMT16A,,PR_Meas_QMR101_102,,RH_Meas_QMH101,,SR_Meas_QMS101,,TA_Meas_QMH101,,GenWind,,GenWind,
time,status,PA,status,PR,status,RH,status,SR,status,TA,status,DirAvg,status,SpdAvg,
2012-09-14, 07:20:04,VALID,917.999,VALID,0,VALID,97.9075,VALID,116.359,VALID,17.309,VALID,152,VALID,0,
2012-09-14, 07:21:04,VALID,918.06,VALID,0,VALID,97.9075,VALID,123.02,VALID,17.2882,VALID,118,VALID,0,
2012-09-14, 07:22:04,VALID,917.699,VALID,0,VALID,97.8923,VALID,127.103,VALID,17.3272,VALID,147,VALID,0,
2012-09-14, 07:23:04,VALID,916.933,VALID,0,VALID,97.8847,VALID,129.574,VALID,17.387,VALID,124,VALID,0,
2012-09-14, 07:24:04,VALID,918.135,VALID,0,VALID,97.877,VALID,134.087,VALID,17.3467,VALID,147,VALID,0,
2012-09-14, 07:25:04,VALID,917.734,VALID,0,VALID,97.8694,VALID,136.773,VALID,17.3467,VALID,169,VALID,0,
2012-09-14, 07:26:04,VALID,918.1,VALID,0,VALID,97.8465,VALID,132.905,VALID,17.4052,VALID,173,VALID,0,
2012-09-14, 07:27:04,VALID,916.495,VALID,0,VALID,97.8237,VALID,129.037,VALID,17.4636,VALID,192,VALID,0,
2012-09-14, 07:28:04,VALID,918.454,VALID,0,VALID,97.8084,VALID,130.756,VALID,17.5416,VALID,190,VALID,0,
2012-09-14, 07:29:04,VALID,918.551,VALID,0,VALID,97.7932,VALID,131.83,VALID,17.6001,VALID,190,VALID,0,
2012-09-14, 07:30:04,VALID,918.414,VALID,0,VALID,97.7932,VALID,133.012,VALID,17.5806,VALID,175,VALID,0,
2012-09-14, 07:31:04,VALID,919.562,VALID,0,VALID,97.7856,VALID,134.516,VALID,17.5806,VALID,178,VALID,0,
2012-09-14, 07:32:04,VALID,918.828,VALID,0,VALID,97.7627,VALID,138.384,VALID,17.5611,VALID,167,VALID,0,
2012-09-14, 07:33:04,VALID,918.698,VALID,0,VALID,97.7627,VALID,142.037,VALID,17.5403,VALID,163,VALID,0,
2012-09-14, 07:34:04,VALID,918.256,VALID,0,VALID,97.7322,VALID,143.649,VALID,17.5611,VALID,147,VALID,0,
2012-09-14, 07:35:04,VALID,916.699,VALID,0,VALID,97.7169,VALID,143.004,VALID,17.5806,VALID,149,VALID,0,
2012-09-14, 07:36:04,VALID,918.468,VALID,0,VALID,97.6865,VALID,142.682,VALID,17.6001,VALID,133,VALID,0,
2012-09-14, 07:37:04,VALID,918.245,VALID,0,VALID,97.6712,VALID,142.037,VALID,17.6585,VALID,136,VALID,0,
2012-09-14, 07:38:04,VALID,917.799,VALID,0,VALID,97.6483,VALID,143.434,VALID,17.6377,VALID,129,VALID,0,
2012-09-14, 07:39:04,VALID,918.045,VALID,0,VALID,97.6483,VALID,145.368,VALID,17.6975,VALID,116,VALID,0,
2012-09-14, 07:40:04,VALID,918.919,VALID,0,VALID,97.6407,VALID,145.583,VALID,17.717,VALID,108,VALID,0,
2012-09-14, 07:41:04,VALID,918.76,VALID,0,VALID,97.6178,VALID,145.69,VALID,17.717,VALID,110,VALID,0,
2012-09-14, 07:42:04,VALID,919.169,VALID,0,VALID,97.6255,VALID,146.227,VALID,17.7157,VALID,114,VALID,0,
2012-09-14, 07:43:04,VALID,919.021,VALID,0,VALID,97.5492,VALID,147.302,VALID,17.795,VALID,114,VALID,0,
2012-09-14, 07:44:04,VALID,918.717,VALID,0,VALID,97.5416,VALID,149.236,VALID,17.8535,VALID,114,VALID,0,
2012-09-14, 07:45:04,VALID,918.888,VALID,0,VALID,97.5264,VALID,150.955,VALID,17.8548,VALID,135,VALID,0,
2012-09-14, 07:46:04,VALID,918.827,VALID,0,VALID,97.4654,VALID,152.566,VALID,17.8353,VALID,146,VALID,0,
2012-09-14, 07:47:04,VALID,918.862,VALID,0,VALID,97.4425,VALID,155.145,VALID,17.8743,VALID,118,VALID,0,
2012-09-14, 07:48:04,VALID,918.6,VALID,0,VALID,97.3739,VALID,159.335,VALID,17.9133,VALID,154,VALID,0,
2012-09-14, 07:49:04,VALID,918.669,VALID,0,VALID,97.3129,VALID,162.451,VALID,17.8938,VALID,135,VALID,0,
2012-09-14, 07:50:04,VALID,918.63,VALID,0,VALID,97.2672,VALID,162.773,VALID,17.9119,VALID,129,VALID,0,
2012-09-14, 07:51:04,VALID,918.615,VALID,0,VALID,97.2443,VALID,163.311,VALID,17.9899,VALID,142,VALID,0,
2012-09-14, 07:52:04,VALID,918.595,VALID,0,VALID,97.2367,VALID,167.501,VALID,17.9704,VALID,138,VALID,0,
2012-09-14, 07:53:04,VALID,918.613,VALID,0,VALID,97.1909,VALID,167.608,VALID,17.9899,VALID,152,VALID,0,
2012-09-14, 07:54:04,VALID,918.637,VALID,0,VALID,97.1376,VALID,170.402,VALID,17.9899,VALID,138,VALID,0,
2012-09-14, 07:55:04,VALID,918.624,VALID,0,VALID,97.0613,VALID,172.228,VALID,17.9496,VALID,150,VALID,0,
2012-09-14, 07:56:04,VALID,918.649,VALID,0,VALID,96.8784,VALID,172.873,VALID,17.9301,VALID,163,VALID,0,
2012-09-14, 07:57:04,VALID,918.717,VALID,0,VALID,96.7107,VALID,174.807,VALID,17.9314,VALID,143,VALID,0,
2012-09-14, 07:58:04,VALID,918.649,VALID,0,VALID,96.8174,VALID,175.451,VALID,17.9704,VALID,157,VALID,0,
2012-09-14, 07:59:04,VALID,918.665,VALID,0,VALID,96.6497,VALID,176.956,VALID,17.9704,VALID,151,VALID,0,
2012-09-14, 08:00:04,VALID,918.673,VALID,0,VALID,96.4972,VALID,175.666,VALID,17.9691,VALID,138,VALID,0,
2012-09-14, 08:01:04,VALID,918.682,VALID,0,VALID,96.2761,VALID,173.732,VALID,17.9886,VALID,125,VALID,0,
2012-09-14, 08:02:04,VALID,918.692,VALID,0,VALID,96.1846,VALID,171.691,VALID,18.0275,VALID,142,VALID,0,
2012-09-14, 08:03:04,VALID,918.712,VALID,0,VALID,96.0932,VALID,171.476,VALID,18.086,VALID,164,VALID,0,
2012-09-14, 08:04:04,VALID,918.71,VALID,0,VALID,95.9636,VALID,171.046,VALID,18.1264,VALID,156,VALID,0,
2012-09-14, 08:05:04,VALID,918.741,VALID,0,VALID,95.712,VALID,170.294,VALID,18.1459,VALID,156,VALID,0,
2012-09-14, 08:06:04,VALID,918.694,VALID,0,VALID,95.4985,VALID,170.724,VALID,18.1849,VALID,131,VALID,0,
2012-09-14, 08:07:04,VALID,918.75,VALID,0,VALID,95.247,VALID,171.046,VALID,18.1835,VALID,162,VALID,0,
2012-09-14, 08:08:04,VALID,918.767,VALID,0,VALID,95.0411,VALID,171.584,VALID,18.2044,VALID,147,VALID,0,
2012-09-14, 08:09:04,VALID,918.708,VALID,0,VALID,94.4465,VALID,173.517,VALID,18.164,VALID,139,VALID,0,
2012-09-14, 08:10:04,VALID,918.749,VALID,0,VALID,94.4541,VALID,175.989,VALID,18.2615,VALID,122,VALID,0,
2012-09-14, 08:11:04,VALID,918.775,VALID,0,VALID,93.8824,VALID,179.749,VALID,18.2823,VALID,147,VALID,0,
2012-09-14, 08:12:04,VALID,918.988,VALID,0,VALID,93.5851,VALID,183.832,VALID,18.3199,VALID,142,VALID,0,
2012-09-14, 08:13:04,VALID,919.115,VALID,0,VALID,93.0133,VALID,185.551,VALID,18.3798,VALID,167,VALID,0,
2012-09-14, 08:14:04,VALID,918.79,VALID,0,VALID,93.2344,VALID,188.237,VALID,18.4383,VALID,175,VALID,0,
2012-09-14, 08:15:04,VALID,918.898,VALID,0,VALID,92.2052,VALID,186.196,VALID,18.3589,VALID,167,VALID,0,
2012-09-14, 08:16:04,VALID,918.969,VALID,0,VALID,92.2433,VALID,187.162,VALID,18.3993,VALID,167,VALID,0,
2012-09-14, 08:17:04,VALID,918.863,VALID,0,VALID,92.0985,VALID,185.766,VALID,18.3979,VALID,148,VALID,0,
2012-09-14, 08:18:04,VALID,918.843,VALID,0,VALID,91.8317,VALID,184.369,VALID,18.4369,VALID,125,VALID,0,
2012-09-14, 08:19:04,VALID,918.701,VALID,0,VALID,91.6792,VALID,185.766,VALID,18.4564,VALID,107,VALID,0,
2012-09-14, 08:20:04,VALID,918.786,VALID,0,VALID,91.0312,VALID,190.815,VALID,18.4578,VALID,114,VALID,0,
2012-09-14, 08:21:04,VALID,918.786,VALID,0,VALID,91.3514,VALID,201.13,VALID,18.5163,VALID,99,VALID,0,
2012-09-14, 08:22:04,VALID,919.141,VALID,0,VALID,91.3666,VALID,217.568,VALID,18.5553,VALID,125,VALID,0,
2012-09-14, 08:23:04,VALID,918.967,VALID,0,VALID,91.1151,VALID,232.61,VALID,18.6138,VALID,169,VALID,0,
2012-09-14, 08:24:04,VALID,918.983,VALID,0,VALID,90.4213,VALID,238.412,VALID,18.6918,VALID,119,VALID,0,
2012-09-14, 08:25:04,VALID,918.937,VALID,0,VALID,90.0707,VALID,229.065,VALID,18.7697,VALID,137,VALID,0,
2012-09-14, 08:26:04,VALID,919.014,VALID,0,VALID,89.3922,VALID,236.693,VALID,18.8477,VALID,167,VALID,0,
2012-09-14, 08:27:04,VALID,918.977,VALID,0,VALID,89.2778,VALID,237.552,VALID,18.9257,VALID,162,VALID,0,
2012-09-14, 08:28:04,VALID,919.312,VALID,0,VALID,89.1863,VALID,235.081,VALID,19.0037,VALID,152,VALID,0,
2012-09-14, 08:29:04,VALID,919.004,VALID,0,VALID,87.6845,VALID,237.015,VALID,19.0037,VALID,163,VALID,0,
2012-09-14, 08:30:04,VALID,918.842,VALID,0,VALID,88.7671,VALID,236.156,VALID,19.0232,VALID,157,VALID,0,
2012-09-14, 08:31:04,VALID,918.695,VALID,0,VALID,87.8218,VALID,236.048,VALID,19.0037,VALID,165,VALID,0,
2012-09-14, 08:32:04,VALID,918.94,VALID,0,VALID,89.1711,VALID,240.346,VALID,19.0232,VALID,165,VALID,0,
2012-09-14, 08:33:04,VALID,919.067,VALID,0,VALID,89.0949,VALID,247.544,VALID,19.0817,VALID,157,VALID,0,
2012-09-14, 08:34:04,VALID,919.048,VALID,0,VALID,88.302,VALID,244.536,VALID,19.1012,VALID,141,VALID,0,
2012-09-14, 08:35:04,VALID,918.831,VALID,0,VALID,88.1114,VALID,253.346,VALID,19.1207,VALID,169,VALID,0,
2012-09-14, 08:36:04,VALID,918.736,VALID,0,VALID,89.0796,VALID,250.983,VALID,19.1987,VALID,135,VALID,0,
2012-09-14, 08:37:04,VALID,918.998,VALID,0,VALID,87.4101,VALID,244.644,VALID,19.1987,VALID,145,VALID,0,
2012-09-14, 08:38:04,VALID,918.948,VALID,0,VALID,87.837,VALID,242.924,VALID,19.2377,VALID,143,VALID,0,
2012-09-14, 08:39:04,VALID,918.986,VALID,0,VALID,87.9132,VALID,254.098,VALID,19.2558,VALID,130,VALID,0,
2012-09-14, 08:40:04,VALID,919.061,VALID,0,VALID,88.02,VALID,255.173,VALID,19.2948,VALID,136,VALID,0,
2012-09-14, 08:41:04,VALID,919.033,VALID,0,VALID,88.889,VALID,248.082,VALID,19.3742,VALID,156,VALID,0,
2012-09-14, 08:42:04,VALID,919.052,VALID,0,VALID,87.6464,VALID,256.355,VALID,19.4327,VALID,169,VALID,0,
2012-09-14, 08:43:04,VALID,919.063,VALID,0,VALID,86.7697,VALID,263.768,VALID,19.4132,VALID,164,VALID,0,
2012-09-14, 08:44:04,VALID,919.05,VALID,0,VALID,87.4025,VALID,274.62,VALID,19.4327,VALID,138,VALID,0,
2012-09-14, 08:45:04,VALID,918.072,VALID,0,VALID,87.6693,VALID,288.157,VALID,19.4508,VALID,159,VALID,0,
2012-09-14, 08:46:04,VALID,919.065,VALID,0,VALID,88.0581,VALID,310.505,VALID,19.4898,VALID,160,VALID,0,
2012-09-14, 08:47:04,VALID,919.044,VALID,0,VALID,88.2258,VALID,308.786,VALID,19.5093,VALID,176,VALID,0,
2012-09-14, 08:48:04,VALID,919.11,VALID,0,VALID,87.9056,VALID,309.753,VALID,19.5288,VALID,123,VALID,0,
2012-09-14, 08:49:04,VALID,919.117,VALID,0,VALID,87.837,VALID,304.596,VALID,19.5483,VALID,162,VALID,0,
2012-09-14, 08:50:04,VALID,919.099,VALID,0,VALID,88.8585,VALID,309.753,VALID,19.6263,VALID,123,VALID,0,
2012-09-14, 08:51:04,VALID,919.124,VALID,0,VALID,88.5917,VALID,305.24,VALID,19.6458,VALID,171,VALID,0,
2012-09-14, 08:52:04,VALID,919.118,VALID,0,VALID,88.1572,VALID,289.876,VALID,19.7433,VALID,139,VALID,0,
2012-09-14, 08:53:04,VALID,919.107,VALID,0,VALID,88.2029,VALID,280.421,VALID,19.8213,VALID,167,VALID,0,
2012-09-14, 08:54:04,VALID,919.022,VALID,0,VALID,88.8128,VALID,279.24,VALID,19.9188,VALID,135,VALID,0,
2012-09-14, 08:55:04,VALID,919.117,VALID,0,VALID,88.9653,VALID,278.165,VALID,19.9773,VALID,124,VALID,0,
2012-09-14, 08:56:04,VALID,919.095,VALID,0,VALID,90.2612,VALID,279.132,VALID,20.0749,VALID,32,VALID,0,
2012-09-14, 08:57:04,VALID,919.042,VALID,0,VALID,89.1863,VALID,277.521,VALID,20.1529,VALID,74,VALID,0,
2012-09-14, 08:58:04,VALID,919.068,VALID,0,VALID,87.8065,VALID,279.347,VALID,20.2324,VALID,79,VALID,0,
2012-09-14, 08:59:04,VALID,919.138,VALID,0,VALID,87.7379,VALID,301.05,VALID,20.2894,VALID,88,VALID,0,
2012-09-14, 09:00:04,VALID,919.082,VALID,0,VALID,86.9756,VALID,322.001,VALID,20.3479,VALID,88,VALID,0,
2012-09-14, 09:01:04,VALID,919.285,VALID,0,VALID,86.0836,VALID,337.15,VALID,20.4064,VALID,88,VALID,0,
2012-09-14, 09:02:04,VALID,919.163,VALID,0,VALID,86.2132,VALID,350.366,VALID,20.543,VALID,88,VALID,0,
2012-09-14, 09:03:04,VALID,919.107,VALID,0,VALID,85.1764,VALID,349.613,VALID,20.639,VALID,76,VALID,0,
2012-09-14, 09:04:04,VALID,919.196,VALID,0,VALID,84.132,VALID,360.25,VALID,20.7576,VALID,76,VALID,0,
2012-09-14, 09:05:04,VALID,919.131,VALID,0,VALID,85.7482,VALID,361.754,VALID,20.756,VALID,98,VALID,0,
2012-09-14, 09:06:04,VALID,919.111,VALID,0,VALID,85.4814,VALID,348.969,VALID,20.8746,VALID,97,VALID,0,
2012-09-14, 09:07:04,VALID,919.032,VALID,0,VALID,83.9414,VALID,364.118,VALID,20.9511,VALID,81,VALID,0,
2012-09-14, 09:08:04,VALID,919.122,VALID,0,VALID,83.0038,VALID,351.118,VALID,20.9136,VALID,138,VALID,0,
2012-09-14, 09:09:04,VALID,919.109,VALID,0,VALID,85.5119,VALID,352.944,VALID,20.873,VALID,95,VALID,0,
2012-09-14, 09:10:04,VALID,919.121,VALID,0,VALID,83.3773,VALID,379.59,VALID,20.9331,VALID,115,VALID,0,
2012-09-14, 09:11:04,VALID,919.178,VALID,0,VALID,84.1549,VALID,368.523,VALID,20.9706,VALID,100,VALID,0,
2012-09-14, 09:12:04,VALID,919.225,VALID,0,VALID,83.0724,VALID,366.267,VALID,21.0681,VALID,61,VALID,0,
2012-09-14, 09:13:04,VALID,919.06,VALID,0,VALID,80.5033,VALID,363.366,VALID,21.0681,VALID,66,VALID,0,
2012-09-14, 09:14:04,VALID,920.984,VALID,0,VALID,82.4244,VALID,376.151,VALID,21.0697,VALID,66,VALID,0,
2012-09-14, 09:15:04,VALID,919.125,VALID,0,VALID,83.3697,VALID,381.631,VALID,21.1282,VALID,55,VALID,0,
2012-09-14, 09:16:04,VALID,918.842,VALID,0,VALID,81.0598,VALID,371.746,VALID,21.1673,VALID,49,VALID,0,
2012-09-14, 09:17:04,VALID,919.228,VALID,0,VALID,82.5387,VALID,344.564,VALID,21.2258,VALID,49,VALID,0,
2012-09-14, 09:18:04,VALID,919.242,VALID,0,VALID,82.5768,VALID,347.894,VALID,21.2648,VALID,49,VALID,0,
2012-09-14, 09:19:04,VALID,919.118,VALID,0,VALID,81.4486,VALID,357.672,VALID,21.325,VALID,49,VALID,0,
2012-09-14, 09:20:04,VALID,920.215,VALID,0,VALID,82.0508,VALID,370.887,VALID,21.364,VALID,49,VALID,0,
2012-09-14, 09:21:04,VALID,920.25,VALID,0,VALID,82.9275,VALID,366.482,VALID,21.4225,VALID,8,VALID,0,
2012-09-14, 09:22:04,VALID,919.163,VALID,0,VALID,83.019,VALID,432.343,VALID,21.5185,VALID,23,VALID,0,
2012-09-14, 09:23:04,VALID,919.726,VALID,0,VALID,80.9759,VALID,499.924,VALID,21.577,VALID,33,VALID,0,
2012-09-14, 09:24:04,VALID,919.223,VALID,0,VALID,82.3481,VALID,510.668,VALID,21.6356,VALID,33,VALID,0,
2012-09-14, 09:25:04,VALID,918.673,VALID,0,VALID,82.9275,VALID,489.394,VALID,21.8112,VALID,33,VALID,0,
2012-09-14, 09:26:04,VALID,919.259,VALID,0,VALID,80.9454,VALID,484.882,VALID,22.0063,VALID,37,VALID,0,
2012-09-14, 09:27:04,VALID,919.347,VALID,0,VALID,78.4754,VALID,431.699,VALID,22.0827,VALID,55,VALID,0,
2012-09-14, 09:28:04,VALID,919.218,VALID,0,VALID,75.3803,VALID,430.946,VALID,22.0844,VALID,45,VALID,0,
2012-09-14, 09:29:04,VALID,919.151,VALID,0,VALID,75.7463,VALID,413.541,VALID,22.0454,VALID,52,VALID,0,
2012-09-14, 09:30:04,VALID,919.679,VALID,0,VALID,77.8046,VALID,391.623,VALID,22.0063,VALID,52,VALID,0,
2012-09-14, 09:31:04,VALID,919.185,VALID,0,VALID,76.6763,VALID,367.234,VALID,22.1234,VALID,52,VALID,0,
2012-09-14, 09:32:04,VALID,919.652,VALID,0,VALID,75.9521,VALID,358.209,VALID,22.26,VALID,52,VALID,0,
2012-09-14, 09:33:04,VALID,919.708,VALID,0,VALID,73.7565,VALID,364.548,VALID,22.2779,VALID,52,VALID,0,
2012-09-14, 09:34:04,INVALID,917.16,VALID,0,VALID,74.435,VALID,370.672,VALID,22.2779,VALID,52,VALID,0,
2012-09-14, 09:35:04,VALID,919.175,VALID,0,VALID,75.4566,VALID,408.491,VALID,22.3364,VALID,52,VALID,0,
2012-09-14, 09:36:04,VALID,919.093,VALID,0,VALID,75.67,VALID,431.806,VALID,22.4925,VALID,52,VALID,0,
2012-09-14, 09:37:04,VALID,919.163,VALID,0,VALID,73.3068,VALID,485.956,VALID,22.6504,VALID,52,VALID,0,
2012-09-14, 09:38:04,VALID,919.185,VALID,0,VALID,73.3601,VALID,501.32,VALID,22.6292,VALID,52,VALID,0,
2012-09-14, 09:39:04,VALID,919.478,VALID,0,VALID,75.1974,VALID,484.345,VALID,22.709,VALID,80,VALID,0,
2012-09-14, 09:40:04,VALID,918.674,VALID,0,VALID,73.1238,VALID,489.932,VALID,22.7658,VALID,112,VALID,0,
2012-09-14, 09:41:04,VALID,917.232,VALID,0,VALID,74.801,VALID,491.221,VALID,22.7658,VALID,112,VALID,0,
2012-09-14, 09:42:04,VALID,915.446,VALID,0,VALID,75.3727,VALID,483.27,VALID,22.8066,VALID,79,VALID,0,
2012-09-14, 09:43:04,INVALID,919.207,VALID,0,VALID,74.4579,VALID,510.345,VALID,22.8439,VALID,78,VALID,0,
2012-09-14, 09:44:04,VALID,919.212,VALID,0,VALID,74.435,VALID,500.783,VALID,22.9024,VALID,78,VALID,0,
2012-09-14, 09:45:04,VALID,918.988,VALID,0,VALID,77.7207,VALID,470.915,VALID,23.0586,VALID,78,VALID,0,
2012-09-14, 09:46:04,VALID,920.132,VALID,0,VALID,76.7678,VALID,476.179,VALID,23.2343,VALID,156,VALID,0,
2012-09-14, 09:47:04,VALID,919.128,VALID,0,VALID,77.4615,VALID,495.411,VALID,23.3123,VALID,158,VALID,0,
2012-09-14, 09:48:04,VALID,919.449,VALID,0,VALID,76.5848,VALID,496.163,VALID,23.3904,VALID,167,VALID,0,
2012-09-14, 09:49:04,VALID,919.148,VALID,0,VALID,76.1503,VALID,474.138,VALID,23.3319,VALID,144,VALID,0,
2012-09-14, 09:50:04,VALID,918.982,VALID,0,VALID,76.623,VALID,474.46,VALID,23.2733,VALID,142,VALID,0,
2012-09-14, 09:51:04,VALID,919.138,VALID,0,VALID,76.0664,VALID,480.047,VALID,23.3106,VALID,142,VALID,0,
2012-09-14, 09:52:04,VALID,919.081,VALID,0,VALID,76.1274,VALID,477.576,VALID,23.3887,VALID,151,VALID,0,
2012-09-14, 09:53:04,VALID,919.05,VALID,0,VALID,76.623,VALID,493.585,VALID,23.4295,VALID,196,VALID,0,
2012-09-14, 09:54:04,VALID,919.133,VALID,0,VALID,76.0588,VALID,505.296,VALID,23.3904,VALID,170,VALID,0,
2012-09-14, 09:55:04,VALID,919.04,VALID,0,VALID,74.0462,VALID,516.04,VALID,23.252,VALID,149,VALID,0,
2012-09-14, 09:56:04,VALID,919.355,VALID,0,VALID,75.7005,VALID,507.982,VALID,23.1935,VALID,149,VALID,0,
2012-09-14, 09:57:04,VALID,919.056,VALID,0,VALID,74.374,VALID,523.023,VALID,23.2343,VALID,148,VALID,0,
2012-09-14, 09:58:04,VALID,919.081,VALID,0,VALID,76.1579,VALID,502.61,VALID,23,VALID,118,VALID,0,
2012-09-14, 09:59:04,VALID,919.068,VALID,0,VALID,75.8606,VALID,483.163,VALID,22.9219,VALID,158,VALID,0,
2012-09-14, 10:00:04,VALID,919.087,VALID,0,VALID,75.9445,VALID,497.56,VALID,22.9397,VALID,166,VALID,0,
2012-09-14, 10:01:04,VALID,919.129,VALID,0,VALID,75.4108,VALID,506.585,VALID,22.9787,VALID,166,VALID,0,
2012-09-14, 10:02:04,VALID,919.099,VALID,0,VALID,73.9395,VALID,569.76,VALID,23.0781,VALID,166,VALID,0,
2012-09-14, 10:03:04,VALID,919.107,VALID,0,VALID,75.4871,VALID,590.711,VALID,23.2343,VALID,112,VALID,0,
2012-09-14, 10:04:04,VALID,919.053,VALID,0,VALID,75.2126,VALID,618.539,VALID,23.449,VALID,114,VALID,0,
2012-09-14, 10:05:04,VALID,919.036,VALID,0,VALID,74.557,VALID,606.613,VALID,23.5448,VALID,179,VALID,0,
2012-09-14, 10:06:04,VALID,919.046,VALID,0,VALID,72.1251,VALID,626.167,VALID,23.5821,VALID,137,VALID,0,
2012-09-14, 10:07:04,VALID,919.031,VALID,0,VALID,72.5444,VALID,669.251,VALID,23.5448,VALID,136,VALID,0,
2012-09-14, 10:08:04,VALID,919.077,VALID,0,VALID,73.0399,VALID,688.59,VALID,23.5448,VALID,157,VALID,0,
2012-09-14, 10:09:04,VALID,919.063,VALID,0,VALID,72.5063,VALID,707.07,VALID,23.701,VALID,193,VALID,0,
2012-09-14, 10:10:04,VALID,919.118,VALID,0,VALID,67.917,VALID,712.765,VALID,23.9158,VALID,199,VALID,0,
2012-09-14, 10:11:04,VALID,919.129,VALID,0,VALID,68.5726,VALID,676.449,VALID,24.1305,VALID,199,VALID,0,
2012-09-14, 10:12:04,VALID,919.121,VALID,0,VALID,68.4735,VALID,657.97,VALID,24.1305,VALID,152,VALID,0,
2012-09-14, 10:13:04,VALID,919.043,VALID,0,VALID,67.2462,VALID,643.787,VALID,24.1891,VALID,140,VALID,0,
2012-09-14, 10:14:04,VALID,919.015,VALID,0,VALID,66.0035,VALID,616.282,VALID,24.2477,VALID,182,VALID,0,
2012-09-14, 10:15:04,VALID,919.026,VALID,0,VALID,64.9363,VALID,603.819,VALID,24.363,VALID,182,VALID,0,
2012-09-14, 10:16:04,VALID,919.402,VALID,0,VALID,61.925,VALID,619.828,VALID,24.482,VALID,182,VALID,0,
2012-09-14, 10:17:04,VALID,919.591,VALID,0,VALID,60.7205,VALID,631.754,VALID,24.6363,VALID,181,VALID,0,
2012-09-14, 10:18:04,VALID,919.279,VALID,0,VALID,60.2555,VALID,613.489,VALID,24.6968,VALID,142,VALID,0,
2012-09-14, 10:19:04,VALID,919.018,VALID,0,VALID,59.1196,VALID,586.091,VALID,24.7944,VALID,144,VALID,0,
2012-09-14, 10:20:04,VALID,919.039,VALID,0,VALID,57.0384,VALID,510.131,VALID,24.9526,VALID,180,VALID,0,
2012-09-14, 10:21:04,VALID,919.046,VALID,0,VALID,59.8057,VALID,464.253,VALID,25.0093,VALID,128,VALID,0,
2012-09-14, 10:22:04,VALID,918.958,VALID,0,VALID,56.8707,VALID,477.039,VALID,24.9311,VALID,137,VALID,0,
2012-09-14, 10:23:04,VALID,919.825,VALID,0,VALID,56.0855,VALID,438.36,VALID,24.7749,VALID,137,VALID,0,
2012-09-14, 10:24:04,VALID,918.961,VALID,0,VALID,60.4003,VALID,501.643,VALID,24.5796,VALID,137,VALID,0,
2012-09-14, 10:25:04,VALID,918.935,VALID,0,VALID,58.0294,VALID,531.082,VALID,24.521,VALID,119,VALID,0,
2012-09-14, 10:26:04,VALID,919.025,VALID,0,VALID,56.2227,VALID,545.909,VALID,24.601,VALID,118,VALID,0,
2012-09-14, 10:27:04,VALID,919.397,VALID,0,VALID,58.6927,VALID,590.389,VALID,24.7749,VALID,118,VALID,0,
2012-09-14, 10:28:04,VALID,918.837,VALID,0,VALID,56.8936,VALID,615.101,VALID,24.9507,VALID,119,VALID,0,
2012-09-14, 10:29:04,VALID,918.951,VALID,0,VALID,60.5528,VALID,592.538,VALID,25.0288,VALID,122,VALID,0,
2012-09-14, 10:30:04,VALID,918.895,VALID,0,VALID,57.6483,VALID,572.769,VALID,24.9507,VALID,153,VALID,0,
2012-09-14, 10:31:04,VALID,918.749,VALID,0,VALID,61.3837,VALID,562.454,VALID,24.8726,VALID,157,VALID,0,
2012-09-14, 10:32:04,VALID,918.867,VALID,0,VALID,59.7218,VALID,572.017,VALID,24.8335,VALID,157,VALID,0,
2012-09-14, 10:33:04,VALID,918.936,VALID,0,VALID,61.0636,VALID,569.116,VALID,24.9311,VALID,157,VALID,0,
2012-09-14, 10:34:04,VALID,918.936,VALID,0,VALID,59.455,VALID,567.934,VALID,25.0483,VALID,157,VALID,0,
2012-09-14, 10:35:04,VALID,919.051,VALID,0,VALID,58.8147,VALID,551.925,VALID,25.2222,VALID,157,VALID,0,
2012-09-14, 10:36:04,VALID,919.065,VALID,0,VALID,61.4676,VALID,544.082,VALID,25.3784,VALID,157,VALID,0,
2012-09-14, 10:37:04,VALID,918.788,VALID,0,VALID,58.4411,VALID,522.486,VALID,25.5151,VALID,157,VALID,0,
2012-09-14, 10:38:04,VALID,918.863,VALID,0,VALID,58.3268,VALID,546.875,VALID,25.4956,VALID,157,VALID,0,
2012-09-14, 10:39:04,VALID,918.854,VALID,0,VALID,63.5564,VALID,570.083,VALID,25.4761,VALID,122,VALID,0,
2012-09-14, 10:40:04,VALID,918.838,VALID,0,VALID,59.7066,VALID,578.033,VALID,25.398,VALID,61,VALID,0,
2012-09-14, 10:41:04,VALID,918.81,VALID,0,VALID,60.7434,VALID,649.374,VALID,25.1636,VALID,68,VALID,0,
2012-09-14, 10:42:04,VALID,918.742,VALID,0,VALID,61.6582,VALID,675.59,VALID,24.9897,VALID,68,VALID,0,
2012-09-14, 10:43:04,VALID,918.781,VALID,0,VALID,62.9694,VALID,672.044,VALID,24.9097,VALID,68,VALID,0,
2012-09-14, 10:44:04,VALID,918.765,VALID,0,VALID,59.5008,VALID,657.862,VALID,24.9488,VALID,68,VALID,0,
2012-09-14, 10:45:04,VALID,918.779,VALID,0,VALID,59.699,VALID,658.077,VALID,24.9683,VALID,68,VALID,0,
2012-09-14, 10:46:04,VALID,918.759,VALID,0,VALID,60.0115,VALID,665.061,VALID,25.0288,VALID,69,VALID,0,
2012-09-14, 10:47:04,VALID,918.726,VALID,0,VALID,58.4182,VALID,638.738,VALID,25.105,VALID,38,VALID,0,
2012-09-14, 10:48:04,VALID,918.667,VALID,0,VALID,58.1514,VALID,623.911,VALID,25.2788,VALID,38,VALID,0,
2012-09-14, 10:49:04,VALID,918.687,VALID,0,VALID,58.5021,VALID,620.795,VALID,25.398,VALID,38,VALID,0,
2012-09-14, 10:50:04,VALID,918.651,VALID,0,VALID,60.0268,VALID,616.712,VALID,25.5171,VALID,38,VALID,0,
2012-09-14, 10:51:04,VALID,918.529,VALID,0,VALID,58.4792,VALID,682.466,VALID,25.5366,VALID,83,VALID,0,
2012-09-14, 10:52:04,VALID,918.647,VALID,0,VALID,60.347,VALID,728.021,VALID,25.6147,VALID,74,VALID,0,
2012-09-14, 10:53:04,VALID,918.64,VALID,0,VALID,56.7335,VALID,721.897,VALID,25.8101,VALID,105,VALID,0,
2012-09-14, 10:54:04,VALID,918.618,VALID,0,VALID,56.6877,VALID,751.873,VALID,25.9273,VALID,68,VALID,0,
2012-09-14, 10:55:04,VALID,918.885,VALID,0,VALID,59.0129,VALID,722.112,VALID,25.9058,VALID,61,VALID,0,
2012-09-14, 10:56:04,VALID,918.62,VALID,0,VALID,58.7613,VALID,698.905,VALID,26.0621,VALID,173,VALID,0,
2012-09-14, 10:57:04,VALID,918.594,VALID,0,VALID,55.0258,VALID,675.375,VALID,26.2183,VALID,103,VALID,0,
2012-09-14, 10:58:04,VALID,918.6,VALID,0,VALID,52.0298,VALID,663.127,VALID,26.3356,VALID,150,VALID,0,
2012-09-14, 10:59:04,VALID,918.573,VALID,0,VALID,55.0258,VALID,650.019,VALID,26.4332,VALID,88,VALID,0,
2012-09-14, 11:00:04,VALID,918.579,VALID,0,VALID,57.0384,VALID,635.192,VALID,26.4332,VALID,93,VALID,0,
2012-09-14, 11:01:04,VALID,918.601,VALID,0,VALID,53.0285,VALID,649.697,VALID,26.4723,VALID,192,VALID,0,
2012-09-14, 11:02:04,VALID,918.552,VALID,0,VALID,52.5711,VALID,656.143,VALID,26.5114,VALID,192,VALID,0,
2012-09-14, 11:03:04,VALID,918.473,VALID,0,VALID,52.1747,VALID,659.581,VALID,26.3726,VALID,192,VALID,0,
2012-09-14, 11:04:04,VALID,918.476,VALID,0,VALID,51.6258,VALID,674.945,VALID,26.2554,VALID,186,VALID,0,
2012-09-14, 11:05:04,VALID,918.555,VALID,0,VALID,49.4607,VALID,663.771,VALID,26.3356,VALID,186,VALID,0,
2012-09-14, 11:06:04,VALID,918.538,VALID,0,VALID,50.8787,VALID,681.392,VALID,26.4548,VALID,186,VALID,0,
2012-09-14, 11:07:04,VALID,918.488,VALID,0,VALID,48.1724,VALID,651.953,VALID,26.5309,VALID,179,VALID,0,